Sabadell, Spain

10:26 AM CET en Noviembre 25, 2017 (GMT +0100)
Sabadell

Tiempo Historia de LELL - Septiembre, 2017

Change the Weather History Date:

Jueves, Septiembre 14, 2017

  Actual Average (LEBL) Record (LEBL)
Temperature  
Temperatura media 74 ° F -  
Temperatura máxima 84 ° F 75 ° F 82 ° F (2011)
Temperatura mínima 64 ° F 63 ° F 59 ° F (2002)
Cooling Degree Days 9    
Growing Degree Days 24 (Base 50)    
Moisture  
Punto de rocío 65 ° F    
Average Humidity 79    
Maximum Humidity 94    
Minimum Humidity 55    
Precipitación  
Precipitación 0.00 pul - - ()
Presión al nivel del mar  
Presión al nivel del mar 30.03 pul    
Viento  
Velocidad del viento 3 mph ()    
Velocidad máxima del viento 17 mph    
Max Gust Speed 28 mph    
Visibilidad 6.0 Millas    
Eventos Lluvia , Tormenta    
Averages and records for this station are not official NWS values.
T = Trace of Precipitation, MM = Missing Value Source: Averaged Metar Reports

Daily Weather History Graph

Daily Weather History Graph

Search for Another Location

Airport or City:

Trip Planner

Search our weather history database for the weather conditions in past years. The results will help you decide how hot, cold, wet, or windy it might be!

Date:

Astronomía

Sep. 14, 2017 Salida Puesta
Hora real 7:30 AM CEST 8:02 PM CEST
Crepúsculo civil 7:03 AM CEST 8:30 PM CEST
Crepúsculo náutico 6:30 AM CEST 9:03 PM CEST
Crepúsculo astronómico 5:56 AM CEST 9:36 PM CEST
Luna 1:10 AM CEST (9/14) 4:07 PM CEST (9/14)
Horas de luz 13h 27m
Horas de luz
12h 31m
Cuarto menguante, 37% of the Moon is Illuminated
Sep 14
Cuarto menguante
Sep 20
Nueva
Sep 28
Cuarto creciente
Oct 5
Luna llena
Oct 12
Cuarto menguante

Hourly Weather History & Observations

Hora (CEST) Temp. Índice de calor Punto de rocío Humedad Presión Visibilidad Wind Dir Velocidad del viento Velocidad de ráfagas Precip Eventos Condiciones
12:00 AM 71.6 ° F - 64.4 ° F 78% 30.12 pul 6.2 mi Variable 2.3 mph - N/A   Desconocido
12:30 AM 71.6 ° F - 66.2 ° F 83% 30.12 pul 6.2 mi Variable 1.2 mph - N/A   Desconocido
1:00 AM 69.8 ° F - 64.4 ° F 83% 30.12 pul 6.2 mi Sin viento Sin viento - N/A   Desconocido
1:30 AM 69.8 ° F - 64.4 ° F 83% 30.09 pul 6.2 mi Sin viento Sin viento - N/A   Desconocido
2:00 AM 68.0 ° F - 64.4 ° F 88% 30.09 pul 6.2 mi Oeste 2.3 mph - N/A   Parcialmente nublado
2:30 AM 69.8 ° F - 66.2 ° F 88% 30.09 pul 6.2 mi Sin viento Sin viento - N/A   Muy nublado
3:00 AM 68.0 ° F - 64.4 ° F 88% 30.06 pul 6.2 mi Sin viento Sin viento - N/A   Muy nublado
3:30 AM 68.0 ° F - 64.4 ° F 88% 30.06 pul 6.2 mi Sin viento Sin viento - N/A   Muy nublado
4:00 AM 68.0 ° F - 64.4 ° F 88% 30.06 pul 6.2 mi Sin viento Sin viento - N/A   Muy nublado
4:30 AM 68.0 ° F - 64.4 ° F 88% 30.06 pul 6.2 mi Sin viento Sin viento - N/A   Parcialmente nublado
5:00 AM 68.0 ° F - 64.4 ° F 88% 30.04 pul 6.2 mi Este 1.2 mph - N/A   Parcialmente nublado
5:30 AM 68.0 ° F - 64.4 ° F 88% 30.04 pul 6.2 mi ESE 1.2 mph - N/A   Desconocido
6:00 AM 68.0 ° F - 64.4 ° F 88% 30.04 pul 6.2 mi Sin viento Sin viento - N/A   Nubes dispersas
6:30 AM 66.2 ° F - 64.4 ° F 94% 30.04 pul 6.2 mi Sin viento Sin viento - N/A   Parcialmente nublado
7:00 AM 66.2 ° F - 64.4 ° F 94% 30.01 pul 6.2 mi Sin viento Sin viento - N/A   Nubes dispersas
7:30 AM 68.0 ° F - 64.4 ° F 88% 30.01 pul 6.2 mi Sin viento Sin viento - N/A   Muy nublado
8:00 AM 68.0 ° F - 64.4 ° F 88% 30.01 pul 6.2 mi Sin viento Sin viento - N/A   Muy nublado
8:30 AM 69.8 ° F - 66.2 ° F 88% 30.01 pul 6.2 mi Sin viento Sin viento - N/A   Muy nublado
9:00 AM 69.8 ° F - 66.2 ° F 88% 30.01 pul 6.2 mi Variable 2.3 mph - N/A   Muy nublado
9:30 AM 71.6 ° F - 64.4 ° F 78% 30.01 pul 6.2 mi Sin viento Sin viento - N/A   Muy nublado
10:00 AM 73.4 ° F - 66.2 ° F 78% 30.01 pul 6.2 mi Sin viento Sin viento - N/A   Muy nublado
10:30 AM 73.4 ° F - 66.2 ° F 78% 30.01 pul 6.2 mi Variable 2.3 mph - N/A   Muy nublado
11:00 AM 77.0 ° F - 66.2 ° F 69% 30.04 pul 6.2 mi Sin viento Sin viento - N/A   Muy nublado
11:30 AM 77.0 ° F - 66.2 ° F 69% 30.01 pul 6.2 mi Norte 1.2 mph - N/A   Muy nublado
12:00 PM 78.8 ° F - 66.2 ° F 65% 30.01 pul 6.2 mi NE 1.2 mph - N/A   Muy nublado
12:30 PM 80.6 ° F 82.7 ° F 66.2 ° F 61% 30.01 pul 6.2 mi Variable 1.2 mph - N/A   Muy nublado
1:00 PM 82.4 ° F 84.6 ° F 66.2 ° F 58% 30.01 pul 6.2 mi NO 1.2 mph - N/A   Muy nublado
1:30 PM 84.2 ° F 86.6 ° F 66.2 ° F 55% 29.98 pul 6.2 mi ESE 2.3 mph - N/A   Nubes dispersas
2:00 PM 84.2 ° F 87.3 ° F 68.0 ° F 58% 29.98 pul 6.2 mi ESE 9.2 mph - N/A   Nubes dispersas
2:30 PM 84.2 ° F 87.3 ° F 68.0 ° F 58% 29.98 pul 6.2 mi SE 11.5 mph - N/A   Nubes dispersas
3:00 PM 82.4 ° F 85.4 ° F 68.0 ° F 62% 29.98 pul 6.2 mi SE 15.0 mph - N/A   Parcialmente nublado
3:30 PM 80.6 ° F 83.2 ° F 68.0 ° F 65% 29.98 pul 6.2 mi SE 17.3 mph - N/A   Nubes dispersas
4:00 PM 80.6 ° F 83.2 ° F 68.0 ° F 65% 29.98 pul 6.2 mi SE 12.7 mph - N/A   Nubes dispersas
4:18 PM 78.8 ° F - 66.2 ° F 65% 29.98 pul 6.2 mi SE 15.0 mph - N/A   Muy nublado
4:30 PM 78.8 ° F - 66.2 ° F 65% 29.98 pul 6.2 mi ESE 15.0 mph 27.6 mph N/A   Muy nublado
5:00 PM 75.2 ° F - 68.0 ° F 78% 29.98 pul 6.2 mi Este 11.5 mph 23.0 mph N/A   Muy nublado
5:30 PM 69.8 ° F - 64.4 ° F 83% 29.98 pul 1.9 mi Este 15.0 mph - N/A Lluvia , Tormenta Tormenta fuerte
6:00 PM 68.0 ° F - 66.2 ° F 94% 30.01 pul 1.9 mi ESE 9.2 mph - N/A Lluvia , Tormenta Tormenta fuerte
6:07 PM 68.0 ° F - 64.4 ° F 88% 30.01 pul 5.0 mi Este 8.1 mph - N/A Lluvia Lluvia
6:30 PM 69.8 ° F - 64.4 ° F 83% 30.01 pul 6.2 mi Este 6.9 mph - N/A   Muy nublado
7:00 PM 69.8 ° F - 66.2 ° F 88% 30.01 pul 6.2 mi ESE 4.6 mph - N/A   Nubes dispersas
7:30 PM 69.8 ° F - 64.4 ° F 83% 30.01 pul 6.2 mi Variable 1.2 mph - N/A   Muy nublado
8:00 PM 69.8 ° F - 64.4 ° F 83% 30.01 pul 6.2 mi Sin viento Sin viento - N/A   Muy nublado
8:30 PM 69.8 ° F - 66.2 ° F 88% 30.04 pul 6.2 mi Oeste 3.5 mph - N/A   Nublado
9:00 PM 68.0 ° F - 64.4 ° F 88% 30.04 pul 6.2 mi Oeste 3.5 mph - N/A   Nublado
9:30 PM 69.8 ° F - 66.2 ° F 88% 30.04 pul 6.2 mi Sin viento Sin viento - N/A   Muy nublado
10:00 PM 68.0 ° F - 57.2 ° F 68% 30.04 pul 6.2 mi NNE 5.8 mph - N/A   Nublado
10:30 PM 66.2 ° F - 55.4 ° F 68% 30.04 pul 6.2 mi NNE 8.1 mph - N/A   Muy nublado
11:00 PM 64.4 ° F - 55.4 ° F 73% 30.04 pul 6.2 mi NNE 2.3 mph - N/A   Muy nublado
11:30 PM 64.4 ° F - 53.6 ° F 68% 30.04 pul 6.2 mi Variable 2.3 mph - N/A   Nublado